Melton Hill Observed Data For Previous 48 Hours

Caption
Day and Hour Reservoir Elevation (behind dam)* Tailwater Elevation (below dam)* Average Hourly Discharge*
9/20/2018 2 AM EDT 794.05 740.19 0
9/20/2018 3 AM EDT 794.09 740.46 0
9/20/2018 4 AM EDT 794.19 740.62 0
9/20/2018 5 AM EDT 794.26 740.60 0
9/20/2018 6 AM EDT 794.30 740.66 0
9/20/2018 7 AM EDT 794.14 741.37 483
9/20/2018 8 AM EDT 794.23 741.38 6,142
9/20/2018 9 AM EDT 794.25 741.27 6,120
9/20/2018 10 AM EDT 794.32 741.11 6,119
9/20/2018 11 AM EDT 794.24 741.01 6,131
9/20/2018 12 PM EDT 794.22 741.06 6,123
9/20/2018 1 PM EDT 794.18 740.96 6,144
9/20/2018 2 PM EDT 794.15 740.88 6,116
9/20/2018 3 PM EDT 794.12 740.87 6,135
9/20/2018 4 PM EDT 794.09 740.90 6,115
9/20/2018 5 PM EDT 794.07 740.88 6,151
9/20/2018 6 PM EDT 794.04 740.88 6,125
9/20/2018 7 PM EDT 794.02 740.81 6,149
9/20/2018 8 PM EDT 794.00 740.78 6,153
9/20/2018 9 PM EDT 793.97 740.73 6,166
9/20/2018 10 PM EDT 793.95 740.71 6,173
9/20/2018 11 PM EDT 793.92 740.70 6,177
9/21/2018 12 AM EDT 793.89 740.69 6,211
9/21/2018 1 AM EDT 794.02 739.88 1,630
9/21/2018 2 AM EDT 794.00 739.97 0
9/21/2018 3 AM EDT 794.02 740.32 0
9/21/2018 4 AM EDT 794.10 740.62 0
9/21/2018 5 AM EDT 794.21 740.66 0
9/21/2018 6 AM EDT 794.28 740.60 0
9/21/2018 7 AM EDT 794.35 740.59 0
9/21/2018 8 AM EDT 794.24 741.10 363
9/21/2018 9 AM EDT 794.31 741.17 6,105
9/21/2018 10 AM EDT 794.29 741.14 6,156
9/21/2018 11 AM EDT 794.34 741.03 6,156
9/21/2018 12 PM EDT 794.25 740.95 6,189
9/21/2018 1 PM EDT 794.24 741.00 6,135
9/21/2018 2 PM EDT 794.21 740.91 6,179
9/21/2018 3 PM EDT 794.20 740.81 6,201
9/21/2018 4 PM EDT 794.17 740.78 6,178
9/21/2018 5 PM EDT 794.14 740.81 6,213
9/21/2018 6 PM EDT 794.11 740.78 6,220
9/21/2018 7 PM EDT 794.08 740.76 6,220
9/21/2018 8 PM EDT 794.06 740.71 6,245
9/21/2018 9 PM EDT 794.04 740.67 6,240
9/21/2018 10 PM EDT 794.01 740.65 6,223
9/21/2018 11 PM EDT 793.97 740.62 6,241
9/22/2018 12 AM EDT 793.96 740.70 6,225
9/22/2018 1 AM EDT 793.93 740.79 6,200
9/22/2018 2 AM EDT 794.06 740.19 201
9/22/2018 3 AM EDT 794.08 740.32 0
9/22/2018 4 AM EDT 794.13 740.63 0
9/22/2018 5 AM EDT 794.23 740.76 0
9/22/2018 6 AM EDT 794.29 740.66 0
9/22/2018 7 AM EDT 794.32 740.66 0
9/22/2018 8 AM EDT 794.32 740.73 0
9/22/2018 9 AM EDT 794.32 740.74 0
9/22/2018 10 AM EDT 794.34 740.73 0
9/22/2018 11 AM EDT 794.37 740.79 0
9/22/2018 12 PM EDT 794.39 740.88 0
9/22/2018 1 PM EDT 794.24 741.35 364
9/22/2018 2 PM EDT 794.24 741.35 6,200
9/22/2018 3 PM EDT 794.14 741.15 6,215
9/22/2018 4 PM EDT 794.15 740.92 6,209
9/22/2018 5 PM EDT 794.02 740.81 6,217

Elevations are in feet above sea level. Discharges are in cubic feet per second and are reported at the end of the hour.